Dewpoint
-11 -13 -13 -13 -14 -14 -16 -18 -18 -16 -14 -11 -9 -5 1 4 3 3 5 6 5 10 12 14 8 15 12 11 14 15 13 10 9 10 11 8 8 8 8 10 10 9 9 9 10
-10 -11 -13 -13 -14 -14 -15 -17 -18 -17 -15 -12 -9 -6 -1 3 4 3 3 4 5 11 14 16 16 14 13 13 12 11 9 8 5 9 10 9 8 9 9 9 9 10 10 10 10
-10 -10 -12 -13 -13 -14 -15 -16 -18 -17 -15 -12 -10 -7 -3 1 3 4 5 4 5 6 11 16 17 16 15 12 7 3 8 6 6 8 6 8 10 8 10 10 10 10 10 10 10
-10 -10 -11 -13 -13 -14 -15 -16 -18 -18 -15 -13 -10 -8 -3 0 7 7 2 3 4 7 9 12 14 14 12 9 2 5 5 6 7 8 8 9 10 10 10 10 10 10 10 10 10
-9 -10 -11 -12 -13 -14 -15 -17 -18 -18 -16 -13 -11 -8 -4 2 5 7 3 3 6 9 8 9 6 2 3 2 5 8 7 8 7 5 7 6 9 10 10 10 9 9 10 10 10
-9 -10 -11 -12 -13 -13 -14 -16 -18 -18 -16 -13 -11 -9 -5 3 6 4 4 3 7 7 6 4 4 3 2 6 8 4 10 9 6 6 7 13 10 10 9 9 9 9 10 10 10
-11 -10 -11 -11 -13 -12 -14 -16 -18 -19 -17 -13 -10 -9 -6 3 5 6 4 5 7 7 5 5 5 3 2 2 5 6 10 9 6 8 9 10 12 10 9 8 9 9 10 10 10
-12 -10 -11 -11 -12 -12 -14 -16 -18 -19 -17 -13 -10 -8 -0 4 3 6 6 8 7 6 5 4 4 3 1 0 6 8 9 11 8 9 8 10 12 10 9 8 8 8 9 9 9
-13 -12 -11 -11 -12 -12 -15 -17 -19 -20 -17 -12 -7 -4 -0 2 1 4 6 6 4 4 2 2 2 2 1 1 2 6 9 9 11 7 8 7 10 10 9 9 9 8 8 8 9
-13 -13 -11 -11 -12 -13 -16 -18 -19 -20 -17 -12 -5 -1 0 -0 -0 2 5 6 4 2 2 2 1 1 1 1 5 4 4 10 12 9 8 10 8 9 10 10 10 8 8 9 9
-12 -13 -12 -11 -11 -14 -17 -15 -3 -18 -9 -8 -9 -3 -1 0 -1 1 2 4 3 1 3 -0 1 2 -1 -6 -5 -4 -4 -0 9 9 9 11 10 10 9 10 11 9 8 9 10
-11 -13 -13 -11 -11 -14 -17 -3 2 -1 -2 -5 -12 -8 -8 -2 -1 -2 -1 1 1 1 0 0 2 -2 -5 -7 -6 -6 -4 -3 -3 7 1 0 9 10 9 10 11 11 9 9 10
-11 -13 -14 -11 -11 -15 -15 0 -0 -2 -3 -6 -10 -9 -10 -7 -6 -5 -3 -2 -1 1 -0 1 0 -4 -7 -6 -6 -6 -4 -6 -9 -11 -9 -7 -4 9 7 9 10 10 10 10 10
-9 -12 -14 -11 -11 -2 -5 -1 -3 -4 -2 -4 -8 -11 -11 -8 -8 -8 -5 -4 -2 -1 -2 -2 -3 -4 -4 -6 -6 -5 -7 -7 -7 -9 -4 -8 3 -1 6 7 10 10 10 11 11
-7 -11 -14 -11 0 0 1 -3 -3 -4 2 -9 -11 -13 -12 -9 -10 -10 -7 -6 -4 -4 -6 -3 -3 -4 -5 -6 -6 -4 -8 -8 -9 -8 -8 -7 3 2 2 8 7 6 10 10 11
-6 -9 -13 -12 -5 -0 -1 -3 -3 1 1 -8 -12 -13 -13 -13 -10 -10 -6 -6 -8 -7 -7 -6 -9 -10 -8 -8 -7 -9 -8 -7 -7 -6 -2 -6 1 2 -0 4 5 5 6 9 10
-4 -8 -12 -12 -7 -1 -1 -2 0 2 -7 -9 -11 -13 -13 -10 -10 -10 -6 -8 -6 -5 -4 -6 -8 -10 -11 -8 -8 -9 -8 -3 -1 -2 0 -1 1 1 -2 1 1 9 2 0 9
-4 -8 -11 -15 -9 -2 -1 1 3 -2 -5 -11 -12 -13 -12 -12 -9 -11 -8 -7 -9 -9 -6 -4 -3 -8 -12 -10 -8 -7 -7 -3 -3 1 -1 -2 1 1 3 4 10 7 4 2 10
-5 -9 -13 -16 -11 -2 -0 3 2 -1 -9 -9 -12 -9 -9 -12 -11 -11 -10 -8 -10 -11 -10 -7 -6 -12 -12 -12 -11 -8 -6 -10 -13 -6 -3 -0 -0 5 3 5 9 11 11 13 12
-5 -8 -9 -7 -12 -6 1 3 -2 -6 -8 -7 -1 -9 -8 -11 -11 -11 -10 -11 -11 -12 -13 -10 -5 -11 -12 -13 -12 -10 -9 -8 -4 0 3 6 7 9 4 9 11 12 12 13 14
-4 1 -6 -4 -5 -6 1 -0 -4 -6 -6 -6 -3 -1 -8 -10 -11 -11 -9 -10 -13 -13 -12 -12 -10 -6 -11 -11 -9 -10 -8 -9 -6 -2 3 6 6 6 4 10 11 11 12 14 14
3 2 -3 -6 -4 -4 -2 -4 -7 -7 -8 -8 -8 -4 -2 -2 -8 -10 -9 -8 -13 -14 -11 -12 -9 -5 -9 -11 -12 -7 -6 -7 -0 -1 -3 3 4 2 5 9 10 11 12 13 13
3 2 -3 -3 -0 -2 -4 -6 -7 -7 -8 -7 -7 -6 -4 -2 -1 -6 -9 -13 -12 -12 -9 -12 -5 -3 -7 -10 -7 -6 -9 -10 -9 -3 -1 4 5 -0 4 4 10 12 12 12 12
5 5 -1 -1 -3 -3 -4 -5 -5 -8 -8 -8 -6 -6 -4 -3 -4 -2 -8 -12 -12 -10 -11 -9 -11 -7 -0 -5 -4 -4 -9 -8 -8 -0 -1 1 4 4 4 5 5 8 11 11 12
5 4 3 4 1 -2 -4 -5 -5 -5 -7 -7 -2 -4 -5 -1 -1 -2 -4 -10 -11 -9 -9 -10 -8 -6 -6 -7 -5 -7 -8 -6 -5 -4 -2 -2 4 5 5 4 6 6 6 10 12
6 8 7 7 5 1 -2 -3 -4 -5 -4 -3 -3 -7 -6 -1 1 -0 -2 -5 -6 -6 -9 -10 -5 -3 -1 -3 -5 -6 -6 -6 -4 -3 -3 -5 -3 3 2 1 6 5 6 9 10
6 7 8 7 6 4 -3 -4 -6 -6 -4 -6 -6 -8 -7 -4 -4 -2 -2 -6 -4 -3 -5 -8 -4 -3 -0 0 -2 -3 -5 -7 -6 -5 -4 -1 -1 -0 1 5 5 5 8 9 10
Wind_Speed
6 6 5 4 4 4 4 4 4 5 4 4 4 4 4 6 5 5 4 6 7 3 11 16 12 15 15 14 27 13 4 5 6 11 8 15 7 11 23 34 24 13 32 30 27
7 6 6 5 5 4 4 4 5 5 5 5 5 5 6 8 10 11 7 5 4 4 8 22 17 14 14 7 11 16 5 5 6 20 10 17 21 12 14 32 30 31 31 26 24
7 7 7 7 6 4 4 4 4 5 5 5 5 6 7 8 11 4 2 4 4 7 8 12 18 22 19 5 7 19 9 9 16 24 13 18 25 17 8 19 33 34 33 28 23
6 7 7 7 6 6 5 5 4 5 5 5 5 6 7 7 4 3 2 4 7 14 16 14 17 22 19 15 20 13 18 6 8 34 24 27 20 10 14 28 35 34 31 28 23
7 7 7 7 6 6 6 5 5 4 5 6 5 6 6 6 9 7 4 5 10 18 22 29 16 20 8 9 26 11 11 24 27 25 6 18 21 15 23 34 35 31 28 26 22
7 7 7 7 7 6 6 6 5 5 5 5 5 5 5 7 5 7 6 5 9 14 22 25 21 26 21 22 13 13 26 14 22 15 7 23 8 25 26 32 33 29 27 24 20
7 7 8 7 8 7 6 6 5 4 5 5 5 6 8 10 6 7 7 5 9 12 19 19 21 23 24 6 34 18 15 8 2 13 5 29 6 15 30 30 31 28 27 24 22
9 8 8 8 7 7 6 6 4 4 4 5 4 5 8 4 6 10 7 8 9 10 17 20 20 24 17 20 10 8 9 5 1 4 2 12 1 18 29 30 27 27 26 24 24
10 9 8 8 7 7 5 4 3 3 4 5 2 4 9 9 13 12 9 12 11 14 16 17 19 19 27 5 3 4 6 4 5 11 3 5 3 18 27 28 26 26 25 23 24
10 10 9 8 7 6 4 3 3 4 4 5 7 4 13 20 12 11 11 11 12 15 21 19 19 7 7 6 5 7 11 6 9 9 3 3 5 15 26 27 26 26 25 24 23
10 10 9 8 6 5 5 2 2 3 11 12 13 15 9 13 15 10 13 10 9 14 9 23 4 8 9 5 7 8 5 8 7 13 11 13 9 12 25 25 26 30 29 27 25
11 10 9 8 6 6 6 4 10 9 9 19 24 23 21 7 6 10 12 10 14 10 16 8 9 11 6 6 6 8 6 4 8 22 14 9 15 16 22 26 32 32 34 32 27
11 10 8 7 6 6 7 4 8 7 6 11 22 21 19 10 9 16 16 15 13 9 12 8 10 7 5 4 6 7 1 4 3 2 4 5 1 10 10 23 28 32 37 37 35
10 9 7 4 2 2 6 8 7 7 3 7 16 18 19 9 14 20 22 16 9 9 10 9 11 7 0 3 6 5 4 5 4 1 4 9 4 6 9 8 21 29 34 39 39
11 9 6 7 5 5 6 1 9 2 3 8 12 6 18 19 6 16 19 20 11 9 4 12 8 2 2 6 6 5 6 6 5 6 3 3 6 8 9 7 9 18 34 38 43
12 10 7 10 11 1 5 5 6 1 6 7 13 9 13 24 23 14 9 13 14 8 10 10 7 4 1 8 2 5 7 9 6 1 4 7 7 4 2 8 6 14 17 36 39
13 12 11 13 11 6 5 8 1 4 8 10 11 11 11 7 9 7 8 6 5 2 7 10 9 4 6 6 5 5 3 4 4 2 6 8 7 8 5 7 5 21 30 36 30
15 14 14 17 15 5 0 2 5 9 11 1 10 10 11 10 11 11 9 7 9 10 4 8 7 10 7 8 7 7 7 5 4 5 5 7 6 1 7 16 30 21 19 25 22
15 14 15 12 18 10 3 4 7 7 7 5 13 11 10 13 9 10 10 10 11 12 8 4 8 8 9 6 7 8 3 7 1 2 6 4 3 8 9 8 21 22 17 18 26
16 12 17 7 18 13 3 6 9 10 19 21 3 8 9 11 10 11 10 11 9 15 17 8 4 8 4 3 6 1 4 5 5 2 2 4 4 5 7 7 9 13 16 15 22
14 6 9 16 18 15 5 6 11 22 27 14 10 7 4 10 12 11 10 9 13 12 18 9 5 6 7 4 8 2 4 4 4 4 5 3 2 7 6 10 10 14 13 13 14
6 4 22 26 11 9 9 6 11 23 33 22 4 7 8 10 7 11 11 8 20 23 8 10 3 3 10 10 9 5 2 1 5 4 2 6 3 6 10 17 22 18 12 9 10
9 12 18 18 5 8 11 17 25 19 20 14 6 9 9 10 7 8 11 19 17 12 6 5 4 1 3 6 3 1 4 3 3 3 3 6 4 5 17 17 21 21 14 9 8
6 3 12 19 20 12 11 15 16 26 24 24 7 12 10 10 11 7 8 9 15 9 8 4 3 5 7 10 7 7 6 3 3 5 1 4 6 7 8 10 18 19 14 10 5
4 6 17 5 13 15 16 12 16 14 22 17 6 10 13 9 10 9 8 6 9 14 6 3 4 5 9 11 10 14 11 8 5 2 4 5 9 8 9 9 19 18 14 18 5
6 9 16 20 22 14 13 14 17 19 11 7 8 12 13 8 7 10 8 4 8 3 4 1 5 4 8 11 5 10 11 10 9 7 5 6 6 11 21 17 23 17 12 13 13
13 13 10 13 11 9 10 15 16 19 20 17 15 13 15 13 17 22 23 22 16 11 9 6 3 2 8 9 7 3 4 4 4 4 5 5 11 8 9 18 23 18 16 13 9
Wind_Direction
1 352 341 333 332 325 311 297 289 281 282 288 292 296 289 282 284 298 337 316 341 166 153 136 120 177 210 249 229 257 256 70 98 74 143 142 113 109 121 132 141 133 140 144 143
352 351 338 328 326 321 302 288 282 276 279 285 288 290 288 288 289 283 281 300 323 261 185 167 190 253 227 210 206 208 61 80 100 121 170 153 122 81 135 109 119 127 136 145 149
349 345 340 329 323 316 300 289 275 275 274 281 286 289 295 314 317 256 219 307 313 271 257 214 223 255 253 240 241 86 69 51 65 141 129 109 96 143 73 124 137 137 145 153 156
349 342 339 329 323 314 300 289 269 263 268 274 278 280 297 304 359 291 252 301 323 324 304 283 264 227 224 244 93 101 104 70 91 52 4 120 138 137 153 137 141 143 150 154 163
344 342 336 327 320 311 300 289 281 255 258 264 271 280 296 294 281 279 257 308 333 336 345 313 323 355 14 145 66 43 31 70 53 51 85 84 118 136 128 134 141 145 154 158 168
339 338 331 323 317 310 300 291 276 261 257 255 269 280 287 273 288 273 252 290 4 352 331 337 351 341 318 97 98 179 111 330 87 128 45 48 296 116 126 136 140 150 160 165 171
335 332 325 321 315 307 299 290 276 259 247 254 261 276 262 229 306 301 263 283 3 326 312 326 331 333 323 97 140 159 127 139 16 156 140 151 273 125 136 140 145 159 167 171 173
331 327 322 317 312 304 299 291 275 252 234 238 255 289 259 229 214 257 290 274 289 292 303 311 313 310 307 298 110 147 120 165 163 270 166 128 176 138 141 145 157 167 174 176 176
329 323 319 314 310 303 295 284 262 233 215 216 184 268 269 225 237 225 236 249 264 271 285 292 295 294 299 332 56 170 168 167 122 238 112 72 183 153 153 156 165 171 176 175 177
329 322 315 313 308 295 273 258 234 194 191 209 209 284 251 225 226 207 220 239 280 290 294 265 271 277 279 265 222 221 229 196 146 208 154 122 225 162 167 164 164 169 173 174 178
329 320 313 309 300 279 238 207 298 237 214 208 207 216 295 214 228 199 209 223 248 279 282 279 244 247 278 41 358 343 21 128 152 178 168 190 194 203 176 166 161 171 177 177 181
327 320 311 303 290 262 233 245 359 326 295 256 241 250 265 197 165 217 212 212 230 244 260 287 246 248 96 55 342 320 333 63 126 169 199 170 197 200 175 176 173 175 177 178 180
325 318 308 297 279 260 239 349 358 353 275 271 228 231 242 230 254 235 222 209 245 246 255 244 255 101 71 130 268 282 24 121 141 236 249 158 322 180 189 174 177 181 182 180 181
323 315 301 280 251 223 272 12 345 320 301 248 196 230 233 201 244 240 216 207 242 250 271 262 281 98 324 265 285 310 54 356 336 353 254 147 217 218 181 183 181 184 177 182 186
318 305 288 246 249 250 339 65 287 258 299 183 167 213 196 198 253 212 214 194 243 254 269 262 265 180 132 237 268 250 6 351 312 283 324 272 92 260 141 178 200 196 184 188 190
314 298 266 247 241 24 38 348 300 337 249 154 162 179 189 208 243 245 189 197 222 262 289 272 296 5 159 256 286 344 322 313 282 238 344 221 123 298 114 159 191 220 202 191 185
308 288 259 231 211 243 305 272 177 225 287 141 159 175 200 179 231 245 165 189 207 203 272 296 273 188 241 320 306 230 275 313 323 61 233 123 71 211 146 87 70 78 22 315 258
304 284 260 229 205 178 314 306 238 232 250 203 161 172 186 207 209 234 167 206 209 243 245 217 269 196 188 199 234 260 204 171 283 161 198 117 137 219 127 92 96 108 135 215 150
307 288 262 221 199 187 270 235 209 225 235 282 167 165 188 219 191 213 203 193 206 213 213 294 264 143 162 194 166 280 5 244 188 21 82 141 122 35 66 67 82 92 146 17 16
313 291 252 183 192 194 223 244 249 292 314 315 322 160 177 206 214 187 211 209 221 209 203 259 327 157 143 189 261 201 257 1 340 147 123 56 93 169 87 88 71 56 46 22 15
318 288 270 171 176 192 222 238 277 279 279 290 316 341 235 184 206 219 211 227 202 237 196 224 183 252 101 179 217 286 302 258 163 118 144 128 237 183 141 131 104 82 58 33 15
313 279 148 162 173 216 236 239 262 281 292 292 283 297 300 301 235 213 214 201 207 212 195 210 115 214 187 213 217 244 261 80 109 334 129 122 300 127 96 115 113 112 102 77 46
315 279 181 181 209 229 243 245 253 265 272 283 299 297 280 289 311 212 190 236 244 185 201 211 267 336 238 294 219 186 282 283 0 64 209 118 226 143 105 102 125 124 119 101 85
310 279 230 204 229 253 242 247 243 253 265 275 272 314 302 286 294 295 186 219 207 153 105 87 253 189 200 214 167 176 209 280 89 72 25 139 118 90 101 102 97 109 125 131 143
247 267 339 261 221 234 245 269 281 262 243 250 289 278 283 280 292 296 293 173 116 136 111 104 251 283 286 305 190 174 185 177 167 154 116 139 132 156 139 123 116 104 88 77 105
284 339 324 295 291 221 219 244 265 276 252 239 194 254 278 273 259 272 295 180 175 137 134 201 252 304 307 293 255 162 185 176 169 177 206 126 118 144 133 130 114 113 113 90 79
317 324 323 292 303 308 212 218 244 265 287 294 231 215 251 263 293 304 312 282 174 158 180 190 178 221 267 287 310 182 181 160 176 165 175 169 162 147 152 134 137 134 137 128 109
Height
1534 1534 1533 1532 1532 1531 1531 1531 1530 1530 1529 1529 1529 1528 1527 1526 1525 1523 1522 1523 1524 1525 1530 1532 1526 1535 1527 1521 1524 1531 1525 1524 1515 1516 1524 1520 1519 1523 1527 1534 1538 1539 1546 1551 1554
1533 1533 1532 1532 1531 1531 1531 1531 1530 1530 1529 1529 1528 1528 1527 1525 1524 1522 1522 1522 1523 1522 1527 1529 1525 1522 1526 1523 1519 1520 1521 1512 1504 1511 1519 1516 1518 1528 1529 1533 1542 1546 1552 1554 1556
1534 1533 1532 1532 1531 1531 1530 1530 1530 1530 1529 1529 1528 1527 1526 1526 1524 1520 1521 1522 1520 1520 1521 1525 1530 1527 1523 1515 1511 1507 1519 1511 1510 1512 1513 1516 1523 1526 1533 1536 1539 1545 1551 1554 1557
1534 1533 1532 1531 1531 1530 1530 1529 1530 1529 1528 1528 1528 1527 1527 1527 1528 1520 1521 1521 1519 1517 1515 1515 1514 1520 1518 1512 1506 1513 1513 1513 1511 1518 1519 1522 1524 1528 1532 1535 1540 1545 1551 1554 1557
1534 1533 1532 1531 1530 1529 1529 1529 1529 1529 1528 1528 1527 1527 1528 1527 1523 1521 1521 1521 1519 1516 1512 1510 1508 1505 1505 1506 1505 1518 1521 1521 1516 1517 1528 1523 1523 1530 1535 1538 1542 1548 1552 1555 1556
1534 1533 1532 1530 1529 1529 1528 1528 1528 1528 1528 1528 1528 1527 1528 1528 1522 1521 1520 1520 1520 1517 1514 1510 1510 1509 1505 1507 1508 1512 1532 1525 1515 1521 1529 1545 1529 1526 1538 1539 1544 1549 1553 1555 1557
1534 1532 1531 1530 1529 1528 1527 1527 1527 1527 1527 1527 1528 1527 1527 1524 1522 1521 1520 1520 1518 1519 1515 1511 1511 1511 1510 1506 1510 1514 1529 1525 1524 1523 1530 1536 1542 1531 1535 1540 1544 1549 1551 1554 1556
1533 1532 1531 1529 1528 1527 1526 1526 1526 1527 1527 1527 1527 1527 1523 1522 1522 1521 1520 1520 1520 1520 1514 1512 1512 1510 1507 1504 1511 1517 1522 1535 1529 1527 1523 1526 1546 1533 1534 1538 1543 1547 1549 1552 1555
1533 1532 1530 1529 1527 1526 1526 1525 1525 1526 1526 1527 1528 1527 1523 1520 1520 1520 1521 1521 1521 1520 1514 1513 1512 1510 1504 1505 1516 1515 1533 1529 1535 1527 1522 1526 1539 1530 1533 1536 1540 1544 1548 1551 1554
1533 1531 1530 1528 1527 1526 1525 1524 1524 1525 1526 1526 1527 1529 1519 1514 1516 1517 1519 1521 1521 1518 1515 1513 1511 1509 1507 1512 1542 1522 1523 1526 1531 1527 1522 1531 1532 1526 1530 1532 1535 1541 1546 1549 1553
1532 1530 1529 1528 1526 1525 1525 1525 1527 1526 1524 1519 1516 1513 1510 1510 1514 1516 1518 1520 1521 1519 1518 1510 1518 1523 1509 1499 1497 1500 1502 1512 1515 1517 1520 1529 1524 1523 1524 1528 1532 1535 1541 1545 1549
1531 1529 1528 1526 1525 1524 1524 1524 1523 1526 1520 1514 1514 1514 1510 1513 1514 1515 1517 1519 1518 1520 1511 1514 1520 1501 1497 1497 1501 1502 1509 1514 1507 1511 1515 1516 1524 1517 1519 1522 1524 1528 1534 1540 1546
1529 1527 1526 1525 1524 1524 1524 1524 1523 1522 1520 1508 1507 1508 1509 1512 1512 1511 1514 1515 1515 1516 1511 1517 1506 1496 1497 1503 1507 1507 1512 1512 1512 1503 1503 1509 1521 1521 1515 1518 1522 1523 1526 1532 1536
1528 1526 1525 1524 1526 1523 1523 1522 1523 1524 1528 1506 1501 1504 1507 1509 1509 1506 1509 1513 1511 1514 1509 1507 1494 1497 1501 1506 1505 1518 1497 1500 1504 1515 1541 1506 1564 1521 1515 1516 1517 1519 1523 1526 1529
1527 1525 1524 1525 1523 1523 1523 1524 1523 1523 1557 1481 1494 1497 1501 1506 1499 1501 1504 1508 1510 1508 1506 1512 1501 1501 1505 1505 1499 1509 1498 1503 1504 1515 1518 1519 1545 1526 1512 1521 1516 1513 1518 1521 1524
1526 1524 1523 1523 1522 1523 1521 1522 1524 1535 1541 1488 1489 1493 1500 1500 1499 1500 1500 1505 1506 1506 1504 1502 1497 1496 1499 1497 1496 1495 1501 1505 1507 1521 1555 1524 1532 1536 1520 1516 1515 1511 1514 1510 1520
1524 1522 1521 1520 1521 1522 1521 1521 1535 1542 1482 1492 1491 1491 1496 1499 1500 1498 1501 1508 1517 1526 1526 1508 1502 1495 1496 1505 1497 1499 1515 1557 1558 1556 1553 1513 1532 1533 1505 1503 1507 1516 1507 1508 1517
1521 1519 1517 1517 1519 1521 1521 1522 1540 1500 1492 1474 1481 1486 1499 1495 1498 1497 1502 1514 1506 1510 1521 1531 1531 1498 1493 1502 1509 1507 1515 1552 1557 1555 1543 1516 1544 1524 1501 1503 1509 1510 1511 1514 1524
1517 1514 1512 1513 1517 1521 1523 1532 1516 1491 1474 1477 1479 1491 1497 1492 1493 1497 1500 1506 1500 1500 1524 1520 1513 1484 1488 1490 1497 1505 1519 1496 1520 1511 1541 1530 1516 1507 1501 1504 1508 1514 1520 1515 1511
1514 1512 1506 1509 1513 1519 1522 1521 1498 1484 1481 1478 1486 1478 1497 1493 1495 1498 1499 1488 1492 1489 1491 1499 1522 1489 1487 1489 1490 1494 1493 1526 1525 1544 1553 1543 1533 1539 1514 1513 1509 1512 1514 1513 1512
1513 1510 1499 1505 1512 1517 1519 1509 1493 1488 1485 1484 1481 1485 1479 1485 1486 1491 1492 1482 1480 1482 1484 1489 1505 1503 1492 1499 1507 1505 1510 1501 1510 1519 1556 1566 1550 1511 1509 1510 1512 1514 1515 1515 1515
1514 1510 1498 1504 1510 1508 1508 1502 1494 1488 1483 1479 1474 1478 1482 1477 1481 1482 1485 1476 1471 1474 1485 1481 1495 1518 1505 1486 1484 1487 1494 1499 1534 1523 1522 1541 1547 1502 1505 1509 1512 1516 1517 1518 1518
1514 1507 1502 1503 1509 1505 1500 1496 1493 1489 1482 1477 1476 1474 1473 1478 1488 1469 1469 1466 1466 1469 1479 1477 1501 1526 1511 1501 1485 1490 1488 1487 1496 1508 1524 1550 1546 1503 1506 1510 1512 1516 1518 1520 1520
1517 1507 1500 1500 1499 1497 1496 1492 1489 1484 1480 1478 1474 1474 1475 1476 1469 1473 1466 1462 1463 1465 1470 1474 1488 1506 1531 1505 1489 1501 1492 1489 1497 1535 1528 1526 1521 1514 1511 1512 1513 1518 1519 1521 1522
1516 1504 1504 1498 1494 1492 1490 1488 1485 1481 1475 1474 1476 1477 1478 1483 1476 1474 1464 1461 1462 1466 1469 1476 1498 1492 1489 1481 1475 1485 1491 1493 1499 1500 1523 1516 1521 1515 1511 1511 1513 1516 1519 1521 1524
1514 1511 1501 1495 1486 1482 1485 1486 1484 1475 1472 1472 1477 1474 1472 1478 1473 1476 1466 1463 1469 1468 1470 1474 1498 1490 1499 1483 1474 1484 1482 1484 1491 1494 1498 1498 1509 1501 1506 1509 1512 1515 1519 1522 1524
1514 1509 1505 1492 1484 1480 1479 1478 1476 1474 1468 1467 1467 1471 1472 1467 1465 1461 1459 1457 1456 1466 1474 1479 1490 1501 1516 1491 1485 1497 1480 1481 1483 1483 1490 1509 1503 1498 1503 1505 1509 1513 1516 1520 1523